Location: Bon Acre
(42.6442°N, 73.5758°W)
Time: 00:45:10
(UTC+00:00)

SMAP - Pass Details

Date: 14 December 2025
Orbit: 681 x 683 km, 98.1° (Epoch: 19 January)

Event Time Altitude Azimuth Distance (km) Brightness Sun altitude
Rises 22:43:11 0° 180° (S) 3,031 6.6 -14.4°
Reaches altitude 10° 22:45:28 10° 186° (S) 2,120 5.9 -14.9°
Maximum altitude 22:49:57 48° 261° (W) 893 4.1 -15.6°
Drops below altitude 10° 22:54:29 10° 336° (NNW) 2,136 5.7 -16.4°
Sets 22:56:48 0° 342° (NNW) 3,056 6.4 -16.8°
